パーライン-ムルコス彗星

18D/Perrine-Mrkos (1995)

English version
Home page
Updated on December 22, 1998

---------------------------------------------------------------------

・ プロフィール

・ 軌道要素

Epoch 1995 Nov. 19.0 TT = JDT 2450040.5  
T 1995 Dec. 6.04666 TT                                  Muraoka 
q   1.2929305            (2000.0)            P               Q
n   0.14566436     Peri.  166.54160     +0.67006854     -0.69266766
a   3.5773974      Node   240.62938     +0.64954930     +0.72115793
e   0.6385835      Incl.   17.83227     +0.35929634     -0.01194787
P   6.77
>From 16 observations 1961-1968, mean residual 1".71.

・ 星図

・ 1995年 5月 3日〜1996年 2月 7日
・ 1996年 1月 8日〜1996年 6月 6日

・ 光度変化

        m1 = 18.0 + 5 logΔ + 20.0 log r

---------------------------------------------------------------------

軌道要素は村岡健治氏の計算によるものです。
星図は StellaNavigator Ver.2.0 for Windows (アストロアーツ 編著 / アスキー出版局刊) で作成したものです。
光度グラフはComet for Windowsで作成したものです。

---------------------------------------------------------------------

Copyright(C) Seiichi Yoshida (comet@aerith.net). All rights reserved.